Weather History for KEUG - December, 2012

Change the Weather History Date:

Thursday, December 6, 2012

  Actual Average Record
Temperature  
Mean Temperature 42 °F 40 °F  
Max Temperature 49 °F 47 °F 61 °F (1962)
Min Temperature 34 °F 35 °F 15 °F (1972)
Degree Days  
Heating Degree Days 23 24  
Month to date heating degree days 103 144  
Since 1 July heating degree days 1030 1317  
Cooling Degree Days 0 0  
Month to date cooling degree days 0 0  
Year to date cooling degree days 230 239  
Moisture  
Dew Point 38 °F    
Average Humidity 86    
Maximum Humidity 100    
Minimum Humidity 71    
Precipitation  
Precipitation T in 0.28 in 1.96 in (1983)
Month to date precipitation 2.45 1.76  
Year to date precipitation 45.20 40.03  
Snow  
Snow 0.00 in - - ()
Month to date snowfall  
Since 1 July snowfall 0.0  
Snow Depth 0.00 in    
Sea Level Pressure  
Sea Level Pressure 30.27 in    
Wind  
Wind Speed 7 mph (South)    
Max Wind Speed 13 mph    
Max Gust Speed 15 mph    
Visibility 7 miles    
Events Fog , Rain , Snow    
T = Trace of Precipitation, MM = Missing Value Source: NWS Daily Summary

Daily Weather History Graph

Daily Weather History Graph

Search for Another Location

Airport or City:

Trip Planner

Search our weather history database for the weather conditions in past years. The results will help you decide how hot, cold, wet, or windy it might be!

Date:

Astronomy

Dec. 06, 2012 Rise Set
Actual Time 7:33 AM PST 4:34 PM PST
Civil Twilight 7:01 AM PST 5:07 PM PST
Nautical Twilight 6:24 AM PST 5:43 PM PST
Astronomical Twilight 5:49 AM PST 6:18 PM PST
Moon No Moon Rise 12:16 PM PST (12/6)
Length of Visible Light 10h 06m
Length of Day
9h 00m
Waning Gibbous, 48% of the Moon is Illuminated
Dec 6
Waning Gibbous
Dec 13
New
Dec 19
First Quarter
Dec 28
Full
Jan 4
Last Quarter

Hourly Weather History & Observations

Time (PST) Temp. Windchill Dew Point Humidity Pressure Visibility Wind Dir Wind Speed Gust Speed Precip Events Conditions
12:54 AM 37.0 °F 33.3 °F 36.0 °F 96% 30.27 in 10.0 mi SSW 4.6 mph - N/A   Clear
1:17 AM 37.4 °F 32.1 °F 37.4 °F 100% 30.26 in 2.5 mi SW 6.9 mph - N/A   Scattered Clouds
1:20 AM 37.4 °F 31.4 °F 37.4 °F 100% 30.26 in 1.2 mi SW 8.1 mph - 0.00 in Snow Light Snow
1:27 AM 37.4 °F 32.1 °F 37.4 °F 100% 30.26 in 1.0 mi SW 6.9 mph - 0.00 in Snow Light Snow
1:45 AM 37.4 °F 34.9 °F 37.4 °F 100% 30.26 in 1.5 mi SW 3.5 mph - 0.00 in Snow Light Snow
1:49 AM 35.6 °F 31.7 °F 35.6 °F 100% 30.26 in 3.0 mi South 4.6 mph - 0.00 in   Scattered Clouds
1:54 AM 36.0 °F 32.1 °F 35.1 °F 97% 30.27 in 5.0 mi South 4.6 mph - 0.00 in   Partly Cloudy
2:54 AM 35.1 °F 32.2 °F 35.1 °F 100% 30.28 in 10.0 mi South 3.5 mph - N/A   Partly Cloudy
3:54 AM 35.1 °F 31.0 °F 35.1 °F 100% 30.27 in 10.0 mi South 4.6 mph - N/A   Clear
4:08 AM 33.8 °F 30.8 °F 33.8 °F 100% 30.26 in 1.5 mi South 3.5 mph - N/A   Clear
4:13 AM 33.8 °F 30.8 °F 33.8 °F 100% 30.26 in 1.2 mi South 3.5 mph - N/A   Partly Cloudy
4:18 AM 33.8 °F 30.8 °F 33.8 °F 100% 30.26 in 2.0 mi SSW 3.5 mph - N/A   Scattered Clouds
4:24 AM 33.8 °F 29.6 °F 33.8 °F 100% 30.26 in 5.0 mi SSW 4.6 mph - N/A   Mostly Cloudy
4:33 AM 33.8 °F 29.6 °F 33.8 °F 100% 30.26 in 2.5 mi South 4.6 mph - N/A   Scattered Clouds
4:37 AM 33.8 °F 29.6 °F 33.8 °F 100% 30.26 in 1.2 mi SSW 4.6 mph - N/A   Mostly Cloudy
4:47 AM 35.6 °F 30.7 °F 35.6 °F 100% 30.26 in 2.0 mi SSW 5.8 mph - N/A   Mostly Cloudy
4:54 AM 35.1 °F 30.1 °F 35.1 °F 100% 30.27 in 9.0 mi SSW 5.8 mph - N/A   Mostly Cloudy
5:22 AM 35.6 °F 30.7 °F 35.6 °F 100% 30.26 in 10.0 mi SSW 5.8 mph - N/A   Overcast
5:43 AM 37.4 °F 33.8 °F 37.4 °F 100% 30.27 in 1.8 mi SSW 4.6 mph - N/A   Overcast
5:51 AM 37.4 °F 32.1 °F 37.4 °F 100% 30.26 in 0.5 mi South 6.9 mph - N/A Fog Fog
5:54 AM 37.4 °F 32.1 °F 37.4 °F 100% 30.27 in 0.5 mi South 6.9 mph - N/A Fog Fog
6:18 AM 37.4 °F 33.8 °F 37.4 °F 100% 30.26 in 1.5 mi SSW 4.6 mph - 0.00 in Rain Light Rain
6:27 AM 37.4 °F 32.8 °F 37.4 °F 100% 30.26 in 3.0 mi South 5.8 mph - 0.00 in   Overcast
6:46 AM 37.4 °F 32.8 °F 37.4 °F 100% 30.26 in 10.0 mi South 5.8 mph - 0.00 in   Overcast
6:54 AM 37.9 °F 33.5 °F 37.9 °F 100% 30.27 in 10.0 mi South 5.8 mph - 0.00 in   Overcast
7:54 AM 37.9 °F 32.7 °F 37.9 °F 100% 30.28 in 10.0 mi SSE 6.9 mph - N/A   Mostly Cloudy
8:54 AM 37.9 °F 33.5 °F 37.9 °F 100% 30.29 in 10.0 mi South 5.8 mph - N/A   Mostly Cloudy
9:54 AM 43.0 °F 38.2 °F 41.0 °F 93% 30.30 in 10.0 mi SSE 8.1 mph - N/A   Mostly Cloudy
10:54 AM 45.0 °F 40.1 °F 41.0 °F 86% 30.29 in 10.0 mi South 9.2 mph - N/A   Mostly Cloudy
11:54 AM 46.0 °F 41.4 °F 41.0 °F 83% 30.28 in 10.0 mi South 9.2 mph - N/A   Mostly Cloudy
12:54 PM 48.0 °F - 41.0 °F 77% 30.27 in 10.0 mi SSW 10.4 mph - N/A   Mostly Cloudy
1:54 PM 48.9 °F - 39.9 °F 71% 30.25 in 10.0 mi SSW 11.5 mph - N/A   Mostly Cloudy
2:54 PM 48.0 °F - 41.0 °F 77% 30.25 in 10.0 mi South 9.2 mph - N/A   Overcast
3:21 PM 46.4 °F 41.1 °F 41.0 °F 81% 30.25 in 10.0 mi SSW 11.5 mph - N/A   Overcast
3:54 PM 46.9 °F - 42.1 °F 83% 30.26 in 10.0 mi SSW 9.2 mph - N/A   Overcast
4:54 PM 46.0 °F 41.4 °F 42.1 °F 86% 30.25 in 10.0 mi South 9.2 mph - N/A   Mostly Cloudy
5:54 PM 45.0 °F 40.6 °F 39.9 °F 82% 30.25 in 10.0 mi South 8.1 mph - N/A   Overcast
6:54 PM 43.0 °F 38.2 °F 39.0 °F 86% 30.26 in 10.0 mi South 8.1 mph - N/A   Mostly Cloudy
7:24 PM 42.8 °F 39.3 °F 39.2 °F 87% 30.25 in 10.0 mi South 5.8 mph - N/A   Mostly Cloudy
7:54 PM 43.0 °F 38.8 °F 39.9 °F 89% 30.26 in 10.0 mi South 6.9 mph - 0.00 in   Mostly Cloudy
8:54 PM 41.0 °F 37.1 °F 37.9 °F 89% 30.27 in 10.0 mi South 5.8 mph - N/A   Scattered Clouds
9:54 PM 42.1 °F 38.4 °F 39.9 °F 92% 30.27 in 10.0 mi South 5.8 mph - N/A   Overcast
10:54 PM 43.0 °F 38.8 °F 41.0 °F 93% 30.27 in 10.0 mi South 6.9 mph - N/A   Mostly Cloudy
11:54 PM 43.0 °F 38.8 °F 41.0 °F 93% 30.27 in 8.0 mi South 6.9 mph - N/A   Overcast